Weather History for Huntington, WV

Change the Weather History Date:

Saturday, January 18, 2014

  Actual Average Record
Temperature  
Mean Temperature 22 °F 34 °F  
Max Temperature 29 °F 42 °F 74 °F (1949)
Min Temperature 15 °F 25 °F -11 °F (1994)
Degree Days  
Heating Degree Days 43 31  
Month to date heating degree days 605 564  
Since 1 July heating degree days 2353 2319  
Cooling Degree Days 0 0  
Month to date cooling degree days 0 0  
Year to date cooling degree days 0 0  
Moisture  
Dew Point 13 °F    
Average Humidity 64    
Maximum Humidity 75    
Minimum Humidity 53    
Precipitation  
Precipitation T in 0.10 in 1.55 in (1937)
Month to date precipitation 1.89 1.72  
Year to date precipitation 1.89 1.72  
Snow  
Snow T in - - ()
Month to date snowfall 2.2  
Since 1 September snowfall 9.7  
Snow Depth 0.00 in    
Sea Level Pressure  
Sea Level Pressure 30.01 in    
Wind  
Wind Speed 6 mph (SW)    
Max Wind Speed 13 mph    
Max Gust Speed 18 mph    
Visibility 8 miles    
Events Snow    
T = Trace of Precipitation, MM = Missing Value Source: NWS Daily Summary

Daily Weather History Graph

Daily Weather History Graph

Search for Another Location

Airport:

Trip Planner

Search our weather history database for the weather conditions in past years. The results will help you decide how hot, cold, wet, or windy it might be!

Date:

Astronomy

Jan. 18, 2014 Rise Set
Actual Time 7:44 AM EST 5:36 PM EST
Civil Twilight 7:15 AM EST 6:05 PM EST
Nautical Twilight 6:43 AM EST 6:38 PM EST
Astronomical Twilight 6:11 AM EST 7:09 PM EST
Moon 8:15 PM EST (1/18) 8:46 AM EST (1/18)
Length of Visible Light 10h 49m
Length of Day
9h 52m
Waning Gibbous, 94% of the Moon is Illuminated
Jan 18
Waning Gibbous
Jan 24
Last Quarter
Jan 30
New
Feb 6
First Quarter
Feb 14
Full

Hourly Weather History & Observations

Time (EST) Temp. Windchill Dew Point Humidity Pressure Visibility Wind Dir Wind Speed Gust Speed Precip Events Conditions
12:36 AM 19.0 °F 10.0 °F 12.9 °F 77% 30.04 in 2.0 mi West 6.9 mph - 0.00 in Snow Light Snow
12:48 AM 17.6 °F 7.3 °F 14.0 °F 86% 30.04 in 1.5 mi WSW 8.1 mph - 0.00 in Snow Light Snow
12:51 AM 18.0 °F 8.7 °F 14.0 °F 84% 30.07 in 2.0 mi WSW 6.9 mph - 0.00 in Snow Light Snow
1:51 AM 18.0 °F 7.7 °F 7.0 °F 62% 30.07 in 2.0 mi West 8.1 mph 17.3 mph 0.00 in   Haze
1:58 AM 18.0 °F 7.7 °F 7.0 °F 62% 30.04 in 10.0 mi West 8.1 mph - N/A   Overcast
2:24 AM 17.1 °F 7.6 °F 10.9 °F 77% 30.05 in 8.0 mi West 6.9 mph - 0.00 in Snow Light Snow
2:34 AM 17.1 °F 7.6 °F 9.0 °F 71% 30.05 in 9.0 mi West 6.9 mph - 0.00 in   Overcast
2:51 AM 16.0 °F 4.4 °F 8.1 °F 71% 30.08 in 10.0 mi West 9.2 mph - 0.00 in   Overcast
3:51 AM 16.0 °F 6.3 °F 7.0 °F 68% 30.08 in 10.0 mi West 6.9 mph - N/A   Overcast
4:51 AM 15.1 °F 7.7 °F 7.0 °F 70% 30.08 in 10.0 mi West 4.6 mph - N/A   Overcast
5:51 AM 15.1 °F 9.4 °F 8.1 °F 74% 30.08 in 10.0 mi WSW 3.5 mph - N/A   Overcast
6:51 AM 16.0 °F 8.8 °F 9.0 °F 74% 30.08 in 10.0 mi WSW 4.6 mph - N/A   Overcast
7:51 AM 17.1 °F 11.7 °F 8.1 °F 68% 30.08 in 10.0 mi SW 3.5 mph - N/A   Overcast
8:51 AM 18.0 °F 7.7 °F 9.0 °F 68% 30.11 in 10.0 mi WSW 8.1 mph - N/A   Overcast
9:51 AM 19.0 °F 7.5 °F 10.0 °F 68% 30.12 in 7.0 mi SW 10.4 mph - 0.00 in Snow Light Snow
10:51 AM 19.9 °F 9.3 °F 12.0 °F 71% 30.12 in 5.0 mi WSW 9.2 mph - 0.00 in Snow Light Snow
11:51 AM 21.9 °F 11.0 °F 12.0 °F 66% 30.10 in 5.0 mi WSW 10.4 mph - 0.00 in   Overcast
11:58 AM 21.9 °F 11.7 °F 12.0 °F 66% 30.06 in 10.0 mi WSW 9.2 mph - 0.00 in Snow Light Snow
12:51 PM 24.1 °F 16.0 °F 12.9 °F 62% 30.06 in 9.0 mi SW 6.9 mph - 0.00 in   Overcast
1:51 PM 26.1 °F 18.4 °F 14.0 °F 60% 30.02 in 10.0 mi SSW 6.9 mph - N/A   Overcast
2:51 PM 26.1 °F 19.4 °F 14.0 °F 60% 29.99 in 10.0 mi South 5.8 mph - N/A   Mostly Cloudy
3:33 PM 28.0 °F 20.0 °F 15.1 °F 58% 29.94 in 10.0 mi South 8.1 mph - N/A   Partly Cloudy
3:51 PM 28.0 °F 21.7 °F 14.0 °F 56% 29.97 in 10.0 mi SSW 5.8 mph - N/A   Clear
4:51 PM 28.0 °F 22.8 °F 14.0 °F 56% 29.96 in 10.0 mi Variable 4.6 mph - N/A   Partly Cloudy
5:51 PM 28.0 °F 21.7 °F 15.1 °F 58% 29.95 in 10.0 mi SE 5.8 mph - N/A   Overcast
6:51 PM 28.0 °F 24.2 °F 15.1 °F 58% 29.94 in 10.0 mi ESE 3.5 mph - N/A   Overcast
7:51 PM 28.0 °F 22.8 °F 16.0 °F 61% 29.92 in 10.0 mi ESE 4.6 mph - N/A   Overcast
8:25 PM 28.0 °F 21.7 °F 17.1 °F 63% 29.88 in 4.0 mi ESE 5.8 mph - 0.00 in Snow Light Snow
8:42 PM 27.0 °F 18.7 °F 19.0 °F 72% 29.87 in 6.0 mi ESE 8.1 mph - 0.00 in Snow Light Snow
8:51 PM 27.0 °F 18.7 °F 19.0 °F 72% 29.90 in 9.0 mi East 8.1 mph - 0.00 in Snow Light Snow
9:51 PM 27.0 °F 21.6 °F 19.9 °F 75% 29.88 in 10.0 mi ESE 4.6 mph - 0.00 in   Mostly Cloudy
10:51 PM 27.0 °F 23.0 °F 19.9 °F 75% 29.85 in 10.0 mi ESE 3.5 mph - N/A   Overcast
11:51 PM 28.0 °F 24.2 °F 21.0 °F 75% 29.82 in 10.0 mi ESE 3.5 mph - N/A   Overcast